Location: Calvatone
(45.1167°N, 10.4333°E)
Time: 13:56:31
(UTC+00:00)

Cosmos 2322 Rocket - Pass Details

Date: 28 January 2023
Orbit: 831 x 852 km, 71.0° (Epoch: 29 March)

Event Time Altitude Azimuth Distance (km) Brightness Sun altitude
Rises 19:45:48 0° 227° (SW) 3,365 5.7 -36.3°
Reaches altitude 10° 19:48:22 10° 234° (SW) 2,435 5.0 -36.7°
Enters shadow 19:51:29 29° 259° (WSW) 1,480 3.8 -37.3°
